Flag for U.S.A. Weather past 2 weeks in Santa Fe, New Mexico, U.S.A.

Now
44 °F

Clear.


Feels Like: 44 °F
Forecast: 31 / 51 °F
Wind: No wind

Location: Los Alamos Airport

Current Time: Jan 27, 2015 at 1:52:14 AM

Latest Report: Jan 27, 2015 at 1:15 AM


Visibility: 10 mi

Pressure: 30.41 "Hg

Humidity: 48%

Dew point: 25 °F

Location of Santa FeLocation

Historic Weather in Santa Fe — Graph

°F

Santa Fe temperature yesterday

Maximum temperature yesterday: 54 °F (at 2:55 PM)
Minimum temperature yesterday: 35 °F (at 5:55 AM)
Average temperature yesterday: 44 °F

Past Weeks' High & Low Weather Summary

 TemperatureHumidityPressure
High54 °F (Jan 26, 2:55 PM)100% (Jan 12, 8:55 AM)30.45 "Hg (Jan 12, 8:55 AM)
Low13 °F (Jan 23, 7:15 AM)15% (Jan 17, 3:55 PM)30.00 "Hg (Jan 21, 2:15 PM)
Average33 °F66%30.25 "Hg
* Reported Jan 12 12:15 AM — Jan 27 12:55 AM, Santa Fe, Weather by CustomWeather, © 2014

Note: Actual official high and low records may vary slightly from our data, if they occured in-between our weather recording intervals... More about our weather records

Advertising

Santa Fe weather history for previous 24 hours

 ConditionsComfort  
Time TempWeatherWind HumidityBarometerVisibility
12:55 AM
Jan 27
44 °FClear.3 mph49%30.41 "Hg10 mi
12:35 AM43 °FClear.5 mph49%30.41 "Hg10 mi
12:15 AM43 °FClear.3 mph49%30.41 "Hg10 mi
11:55 PM
Jan 26
43 °FClear.No wind50%30.41 "Hg10 mi
11:35 PM42 °FClear.3 mph50%30.41 "Hg10 mi
11:15 PM43 °FClear.3 mph49%30.41 "Hg10 mi
10:55 PM43 °FClear.No wind48%30.41 "Hg10 mi
10:15 PM45 °FClear.5 mph44%30.41 "Hg10 mi
9:55 PM46 °FClear.5 mph43%30.41 "Hg10 mi
9:15 PM46 °FClear.6 mph42%30.41 "Hg10 mi
8:55 PM46 °FClear.5 mph41%30.41 "Hg10 mi
8:15 PM46 °FClear.6 mph40%30.41 "Hg10 mi
7:55 PM47 °FClear.5 mph40%30.41 "Hg10 mi
7:35 PM47 °FClear.9 mph38%30.40 "Hg10 mi
7:15 PM48 °FClear.9 mph37%30.40 "Hg10 mi
6:55 PM48 °FClear.9 mph36%30.40 "Hg10 mi
6:35 PM48 °FClear.8 mph39%30.40 "Hg10 mi
6:15 PM48 °FClear.8 mph39%30.40 "Hg10 mi
5:55 PM49 °FClear.7 mph36%30.39 "Hg10 mi
5:35 PM50 °FClear.6 mph35%30.39 "Hg10 mi
5:15 PM51 °FSunny.6 mph34%30.39 "Hg10 mi
4:55 PM52 °FSunny.No wind34%30.38 "Hg10 mi
4:35 PM51 °FSunny.3 mph34%30.38 "Hg10 mi
4:15 PM53 °FSunny.No wind32%30.38 "Hg10 mi
3:55 PM54 °FSunny.No wind31%30.38 "Hg10 mi
3:35 PM54 °FSunny.3 mph30%30.37 "Hg10 mi
3:15 PM54 °FSunny.No wind32%30.37 "Hg10 mi
2:55 PM54 °FSunny.5 mph34%30.37 "Hg10 mi
2:15 PM53 °FSunny.3 mph32%30.36 "Hg10 mi
1:55 PM52 °FSunny.3 mph31%30.35 "Hg10 mi
1:35 PM52 °FSunny.6 mph32%30.36 "Hg10 mi
1:15 PM51 °FSunny.3 mph34%30.37 "Hg10 mi
12:55 PM50 °FSunny.6 mph37%30.37 "Hg10 mi
12:35 PM49 °FSunny.5 mph38%30.38 "Hg10 mi
12:15 PM48 °FSunny.9 mph39%30.39 "Hg10 mi
11:55 AM48 °FSunny.5 mph41%30.39 "Hg10 mi
11:15 AM48 °FSunny.6 mph36%30.41 "Hg10 mi
10:55 AM46 °FSunny.8 mph38%30.42 "Hg10 mi
10:35 AM44 °FSunny.8 mph43%30.43 "Hg10 mi
10:15 AM44 °FSunny.10 mph45%30.43 "Hg10 mi
9:55 AM44 °FSunny.12 mph43%30.42 "Hg10 mi
9:15 AM43 °FSunny.6 mph42%30.41 "Hg10 mi
8:55 AM41 °FSunny.7 mph46%30.41 "Hg10 mi
8:35 AM39 °FSunny.8 mph48%30.41 "Hg10 mi
8:15 AM39 °FSunny.10 mph47%30.41 "Hg10 mi
7:55 AM38 °FSunny.8 mph49%30.41 "Hg10 mi
7:35 AM37 °FSunny.6 mph52%30.41 "Hg10 mi
7:15 AM36 °FSunny.6 mph55%30.41 "Hg10 mi
6:55 AM36 °FClear.6 mph55%30.41 "Hg10 mi
6:15 AM36 °FClear.8 mph55%30.39 "Hg10 mi
5:55 AM35 °FClear.6 mph59%30.39 "Hg10 mi
5:35 AM35 °FClear.6 mph59%30.39 "Hg10 mi
5:15 AM36 °FClear.No wind56%30.39 "Hg10 mi
4:55 AM36 °FClear.3 mph55%30.39 "Hg10 mi
4:15 AM36 °FClear.13 mph56%30.38 "Hg10 mi
3:55 AM36 °FClear.10 mph56%30.37 "Hg10 mi
3:35 AM35 °FClear.6 mph59%30.37 "Hg10 mi
3:15 AM35 °FClear.No wind57%30.38 "Hg10 mi
2:55 AM35 °FClear.No wind58%30.39 "Hg10 mi
2:35 AM36 °FClear.No wind57%30.39 "Hg10 mi
2:15 AM35 °FClear.3 mph58%30.39 "Hg10 mi
1:55 AM36 °FClear.No wind56%30.38 "Hg10 mi
1:35 AM37 °FClear.No wind54%30.37 "Hg10 mi
1:15 AM37 °FClear.6 mph54%30.37 "Hg10 mi
Weather by CustomWeather, © 2014

See weather overviewHow to use our weather pages